Terug naar catalogus

STARLINK-30782

ActiefCommunicatieVLEO
NORAD 58137·PAYLOAD·🇺🇸 United States

Gelanceerd Oct 22, 2023 vanaf Cape Canaveral Space Force Station

Loading…

Volgende Passages (komende 24 uur)

TLE

VersSource: CelesTrak SupGP

Epoch: Sep 14, 2026, 21:06 UTC

1 58137C 23162V   26257.87965278  .00030325  00000+0  10989-2 0  2570
2 58137  42.9991 144.1968 0001361 260.8089 306.6671 15.27547024    14

Volg STARLINK-30782 in realtime met AllMySat

Download on the App Store